カタログに戻る

CZ-3B R/B

運用中HEO
NORAD 69571·ROCKET BODY·🇨🇳 China

打ち上げ Jun 16, 2026 から Xichang Satellite Launch Center

Loading…

次のパス (今後24時間)

TLE

最新Source: Space-Track

元期: Sep 10, 2026, 17:02 UTC

1 69571U 26136B   26253.71002862  .13307478 -16128-5  25761-2 0  9990
2 69571  63.2795 331.3706 4693320 171.7240 200.2671  6.41690908  2681

AllMySatでCZ-3B R/Bをリアルタイム追跡

Download on the App Store